Time,TemperatureF,DewpointF,PressureIn,WindDirection,WindDirectionDegrees,WindSpeedMPH,WindSpeedGustMPH,Humidity,HourlyPrecipIn,Conditions,Clouds,dailyrainin,SoftwareType,DateUTC
2013-03-25 00:00:00,69.5,66.1,29.78,NW,307,0.0,0.0,89,0.00,,,0.00,Wunderground v.1.15,2013-03-25 04:00:00,
2013-03-25 00:01:00,69.4,66.0,29.78,NW,306,0.0,0.0,89,0.00,,,0.00,Wunderground v.1.15,2013-03-25 04:01:00,
2013-03-25 00:05:00,69.3,66.2,29.78,NW,307,0.0,6.0,90,0.00,,,0.00,Wunderground v.1.15,2013-03-25 04:05:00,
2013-03-25 00:09:00,69.2,66.1,29.78,NW,306,0.0,6.0,90,0.00,,,0.00,Wunderground v.1.15,2013-03-25 04:09:00,
2013-03-25 00:14:00,69.0,65.9,29.78,NW,306,0.0,0.0,90,0.00,,,0.00,Wunderground v.1.15,2013-03-25 04:14:00,
2013-03-25 00:19:00,69.0,66.3,29.78,NW,310,1.0,6.0,91,0.00,,,0.00,Wunderground v.1.15,2013-03-25 04:19:00,
2013-03-25 00:24:00,68.9,66.2,29.78,NW,309,1.0,1.0,91,0.00,,,0.00,Wunderground v.1.15,2013-03-25 04:24:00,
2013-03-25 00:29:00,68.8,66.1,29.78,NW,311,0.0,1.0,91,0.00,,,0.00,Wunderground v.1.15,2013-03-25 04:29:00,
2013-03-25 00:34:00,68.8,66.1,29.78,NW,311,0.0,0.0,91,0.00,,,0.00,Wunderground v.1.15,2013-03-25 04:34:00,
2013-03-25 00:40:00,68.6,65.9,29.78,NW,311,0.0,0.0,91,0.00,,,0.00,Wunderground v.1.15,2013-03-25 04:40:00,
2013-03-25 00:46:00,68.5,65.8,29.78,NW,311,0.0,0.0,91,0.00,,,0.00,Wunderground v.1.15,2013-03-25 04:46:00,
2013-03-25 00:51:00,68.4,65.7,29.78,NW,311,0.0,0.0,91,0.00,,,0.00,Wunderground v.1.15,2013-03-25 04:51:00,
2013-03-25 00:56:00,68.3,65.6,29.78,NW,311,0.0,0.0,91,0.00,,,0.00,Wunderground v.1.15,2013-03-25 04:56:00,
2013-03-25 01:02:00,68.1,65.4,29.78,NW,311,0.0,1.0,91,0.00,,,0.00,Wunderground v.1.15,2013-03-25 05:02:00,
2013-03-25 01:07:00,68.1,65.7,29.78,NW,311,0.0,1.0,92,0.00,,,0.00,Wunderground v.1.15,2013-03-25 05:07:00,
2013-03-25 01:12:00,68.0,65.6,29.78,NW,311,0.0,0.0,92,0.00,,,0.00,Wunderground v.1.15,2013-03-25 05:12:00,
2013-03-25 01:18:00,68.0,65.6,29.78,NW,311,0.0,0.0,92,0.00,,,0.00,Wunderground v.1.15,2013-03-25 05:18:00,
2013-03-25 01:23:00,68.0,65.6,29.78,NW,311,0.0,0.0,92,0.00,,,0.00,Wunderground v.1.15,2013-03-25 05:23:00,
2013-03-25 01:28:00,68.0,65.6,29.78,NW,311,0.0,0.0,92,0.00,,,0.00,Wunderground v.1.15,2013-03-25 05:28:00,
2013-03-25 01:34:00,68.1,65.7,29.78,NW,311,0.0,0.0,92,0.00,,,0.00,Wunderground v.1.15,2013-03-25 05:34:00,
2013-03-25 01:39:00,68.1,65.7,29.78,NW,312,0.0,3.0,92,0.00,,,0.00,Wunderground v.1.15,2013-03-25 05:39:00,
2013-03-25 01:44:00,68.2,65.8,29.78,NW,310,1.0,1.0,92,0.00,,,0.00,Wunderground v.1.15,2013-03-25 05:44:00,
2013-03-25 01:49:00,68.2,65.8,29.78,NW,310,0.0,1.0,92,0.00,,,0.00,Wunderground v.1.15,2013-03-25 05:49:00,
2013-03-25 01:54:00,68.3,65.9,29.78,NW,310,1.0,5.0,92,0.00,,,0.00,Wunderground v.1.15,2013-03-25 05:54:00,
2013-03-25 01:59:00,68.4,66.0,29.79,NW,308,1.0,5.0,92,0.00,,,0.00,Wunderground v.1.15,2013-03-25 05:59:00,
2013-03-25 02:05:00,68.5,66.1,29.79,NW,317,1.0,4.0,92,0.00,,,0.00,Wunderground v.1.15,2013-03-25 06:05:00,
2013-03-25 02:11:00,68.5,66.1,29.79,NW,307,1.0,1.0,92,0.00,,,0.00,Wunderground v.1.15,2013-03-25 06:11:00,
2013-03-25 02:16:00,68.5,65.8,29.79,NW,306,1.0,1.0,91,0.00,,,0.00,Wunderground v.1.15,2013-03-25 06:16:00,
2013-03-25 02:21:00,68.5,65.8,29.79,NW,315,1.0,1.0,91,0.00,,,0.00,Wunderground v.1.15,2013-03-25 06:21:00,
2013-03-25 02:26:00,68.5,65.4,29.80,NW,314,1.0,5.0,90,0.00,,,0.00,Wunderground v.1.15,2013-03-25 06:26:00,
2013-03-25 02:32:00,68.4,64.7,29.80,NW,306,1.0,1.0,88,0.00,,,0.00,Wunderground v.1.15,2013-03-25 06:32:00,
2013-03-25 02:37:00,68.5,64.8,29.80,WNW,288,2.0,5.0,88,0.00,,,0.00,Wunderground v.1.15,2013-03-25 06:37:00,
2013-03-25 02:42:00,68.5,64.8,29.80,NW,306,2.0,3.0,88,0.00,,,0.00,Wunderground v.1.15,2013-03-25 06:42:00,
2013-03-25 02:48:00,68.5,64.8,29.80,NW,314,2.0,16.0,88,0.00,,,0.00,Wunderground v.1.15,2013-03-25 06:48:00,
2013-03-25 02:54:00,68.4,64.7,29.80,NW,304,3.0,3.0,88,0.00,,,0.00,Wunderground v.1.15,2013-03-25 06:54:00,
2013-03-25 03:00:00,68.3,64.6,29.80,NW,324,2.0,6.0,88,0.00,,,0.00,Wunderground v.1.15,2013-03-25 07:00:00,
2013-03-25 03:07:00,68.1,64.4,29.80,NW,318,2.0,7.0,88,0.00,,,0.00,Wunderground v.1.15,2013-03-25 07:07:00,
2013-03-25 03:12:00,67.9,63.9,29.80,NW,304,3.0,5.0,87,0.00,,,0.00,Wunderground v.1.15,2013-03-25 07:12:00,
2013-03-25 03:18:00,67.8,63.8,29.81,NW,323,4.0,11.0,87,0.00,,,0.00,Wunderground v.1.15,2013-03-25 07:18:00,
2013-03-25 03:23:00,67.6,63.3,29.81,WNW,301,5.0,10.0,86,0.00,,,0.00,Wunderground v.1.15,2013-03-25 07:23:00,
2013-03-25 03:28:00,67.5,63.2,29.80,WNW,300,5.0,10.0,86,0.00,,,0.00,Wunderground v.1.15,2013-03-25 07:28:00,
2013-03-25 03:34:00,67.3,63.0,29.81,NNW,345,4.0,10.0,86,0.00,,,0.00,Wunderground v.1.15,2013-03-25 07:34:00,
2013-03-25 03:39:00,67.0,62.3,29.81,NNW,330,5.0,13.0,85,0.00,,,0.00,Wunderground v.1.15,2013-03-25 07:39:00,
2013-03-25 03:44:00,66.8,61.8,29.81,West,259,6.0,10.0,84,0.00,,,0.00,Wunderground v.1.15,2013-03-25 07:44:00,
2013-03-25 03:49:00,66.6,61.6,29.80,WNW,290,6.0,10.0,84,0.00,,,0.00,Wunderground v.1.15,2013-03-25 07:49:00,
2013-03-25 03:55:00,66.4,61.4,29.81,NW,318,3.0,13.0,84,0.00,,,0.00,Wunderground v.1.15,2013-03-25 07:55:00,
2013-03-25 04:00:00,66.1,61.5,29.81,WNW,296,2.0,13.0,85,0.00,,,0.00,Wunderground v.1.15,2013-03-25 08:00:00,
2013-03-25 04:06:00,65.9,61.3,29.80,WNW,303,3.0,10.0,85,0.00,,,0.00,Wunderground v.1.15,2013-03-25 08:06:00,
2013-03-25 04:11:00,65.7,61.1,29.80,NW,322,3.0,5.0,85,0.00,,,0.00,Wunderground v.1.15,2013-03-25 08:11:00,
2013-03-25 04:17:00,65.5,60.9,29.80,NW,310,3.0,5.0,85,0.00,,,0.00,Wunderground v.1.15,2013-03-25 08:17:00,
2013-03-25 04:22:00,65.4,60.8,29.81,WNW,290,4.0,5.0,85,0.00,,,0.00,Wunderground v.1.15,2013-03-25 08:22:00,
2013-03-25 04:28:00,65.2,60.2,29.81,NW,307,3.0,7.0,84,0.00,,,0.00,Wunderground v.1.15,2013-03-25 08:28:00,
2013-03-25 04:33:00,65.1,60.1,29.81,WNW,299,3.0,6.0,84,0.00,,,0.00,Wunderground v.1.15,2013-03-25 08:33:00,
2013-03-25 04:38:00,65.0,60.0,29.81,NW,307,3.0,6.0,84,0.00,,,0.00,Wunderground v.1.15,2013-03-25 08:38:00,
2013-03-25 04:44:00,64.8,59.5,29.81,WNW,294,3.0,6.0,83,0.00,,,0.00,Wunderground v.1.15,2013-03-25 08:44:00,
2013-03-25 04:49:00,64.7,59.4,29.81,WNW,286,3.0,6.0,83,0.00,,,0.00,Wunderground v.1.15,2013-03-25 08:49:00,
2013-03-25 04:54:00,64.5,59.2,29.81,NW,315,3.0,4.0,83,0.00,,,0.00,Wunderground v.1.15,2013-03-25 08:54:00,
2013-03-25 05:00:00,64.3,58.3,29.81,NW,312,2.0,10.0,81,0.00,,,0.00,Wunderground v.1.15,2013-03-25 09:00:00,
2013-03-25 05:05:00,64.2,57.5,29.81,NNW,333,2.0,15.0,79,0.00,,,0.00,Wunderground v.1.15,2013-03-25 09:05:00,
2013-03-25 05:12:00,64.0,57.4,29.81,WNW,303,1.0,2.0,79,0.00,,,0.00,Wunderground v.1.15,2013-03-25 09:12:00,
2013-03-25 05:17:00,64.0,57.4,29.81,NW,310,1.0,3.0,79,0.00,,,0.00,Wunderground v.1.15,2013-03-25 09:17:00,
2013-03-25 05:22:00,63.8,57.2,29.81,NW,317,1.0,1.0,79,0.00,,,0.00,Wunderground v.1.15,2013-03-25 09:22:00,
2013-03-25 05:27:00,63.8,57.2,29.81,NW,304,2.0,6.0,79,0.00,,,0.00,Wunderground v.1.15,2013-03-25 09:27:00,
2013-03-25 05:33:00,63.6,57.0,29.81,WNW,298,2.0,2.0,79,0.00,,,0.00,Wunderground v.1.15,2013-03-25 09:33:00,
2013-03-25 05:38:00,63.6,57.0,29.81,NW,304,2.0,3.0,79,0.00,,,0.00,Wunderground v.1.15,2013-03-25 09:38:00,
2013-03-25 05:43:00,63.5,56.9,29.82,NW,314,2.0,9.0,79,0.00,,,0.00,Wunderground v.1.15,2013-03-25 09:43:00,
2013-03-25 05:48:00,63.5,56.9,29.82,NW,304,2.0,9.0,79,0.00,,,0.00,Wunderground v.1.15,2013-03-25 09:48:00,
2013-03-25 05:54:00,63.4,56.8,29.82,NW,325,1.0,6.0,79,0.00,,,0.00,Wunderground v.1.15,2013-03-25 09:54:00,
2013-03-25 05:59:00,63.3,57.0,29.82,NW,306,2.0,7.0,80,0.00,,,0.00,Wunderground v.1.15,2013-03-25 09:59:00,
2013-03-25 06:04:00,63.2,56.9,29.83,WNW,303,2.0,13.0,80,0.00,,,0.00,Wunderground v.1.15,2013-03-25 10:04:00,
2013-03-25 06:09:00,63.1,56.1,29.83,NNW,334,1.0,13.0,78,0.00,,,0.00,Wunderground v.1.15,2013-03-25 10:09:00,
2013-03-25 06:15:00,62.9,55.2,29.83,NNW,334,1.0,3.0,76,0.00,,,0.00,Wunderground v.1.15,2013-03-25 10:15:00,
2013-03-25 06:20:00,62.8,53.6,29.83,WNW,303,1.0,4.0,72,0.00,,,0.00,Wunderground v.1.15,2013-03-25 10:20:00,
2013-03-25 06:26:00,62.7,53.2,29.84,NW,309,2.0,4.0,71,0.00,,,0.00,Wunderground v.1.15,2013-03-25 10:26:00,
2013-03-25 06:32:00,62.6,53.4,29.84,NW,322,2.0,2.0,72,0.00,,,0.00,Wunderground v.1.15,2013-03-25 10:32:00,
2013-03-25 06:38:00,62.5,54.1,29.84,NW,306,1.0,6.0,74,0.00,,,0.00,Wunderground v.1.15,2013-03-25 10:38:00,
2013-03-25 06:43:00,62.3,54.3,29.84,NW,315,1.0,7.0,75,0.00,,,0.00,Wunderground v.1.15,2013-03-25 10:43:00,
2013-03-25 06:48:00,62.2,54.5,29.85,NNW,327,1.0,7.0,76,0.00,,,0.00,Wunderground v.1.15,2013-03-25 10:48:00,
2013-03-25 06:54:00,62.0,54.7,29.85,NW,322,1.0,2.0,77,0.00,,,0.00,Wunderground v.1.15,2013-03-25 10:54:00,
2013-03-25 06:59:00,61.9,54.2,29.86,NNW,343,1.0,6.0,76,0.00,,,0.00,Wunderground v.1.15,2013-03-25 10:59:00,
2013-03-25 07:04:00,61.8,53.8,29.86,WSW,253,2.0,12.0,75,0.00,,,0.00,Wunderground v.1.15,2013-03-25 11:04:00,
2013-03-25 07:09:00,61.7,53.3,29.86,NNW,336,3.0,12.0,74,0.00,,,0.00,Wunderground v.1.15,2013-03-25 11:09:00,
2013-03-25 07:14:00,61.5,52.8,29.86,NNW,327,2.0,2.0,73,0.00,,,0.00,Wunderground v.1.15,2013-03-25 11:14:00,
2013-03-25 07:20:00,61.3,52.6,29.86,NW,314,2.0,2.0,73,0.00,,,0.00,Wunderground v.1.15,2013-03-25 11:20:00,
2013-03-25 07:25:00,61.2,51.7,29.86,NW,323,1.0,2.0,71,0.00,,,0.00,Wunderground v.1.15,2013-03-25 11:25:00,
2013-03-25 07:30:00,61.0,51.1,29.87,NNW,332,2.0,9.0,70,0.00,,,0.00,Wunderground v.1.15,2013-03-25 11:30:00,
2013-03-25 07:35:00,60.9,50.7,29.87,NW,309,3.0,6.0,69,0.00,,,0.00,Wunderground v.1.15,2013-03-25 11:35:00,
2013-03-25 07:42:00,60.8,50.2,29.88,NW,305,4.0,11.0,68,0.00,,,0.00,Wunderground v.1.15,2013-03-25 11:42:00,
2013-03-25 07:47:00,60.8,49.8,29.88,NW,325,4.0,11.0,67,0.00,,,0.00,Wunderground v.1.15,2013-03-25 11:47:00,
2013-03-25 07:52:00,60.7,49.7,29.88,North,360,3.0,5.0,67,0.00,,,0.00,Wunderground v.1.15,2013-03-25 11:52:00,
2013-03-25 07:57:00,60.7,49.7,29.88,WNW,292,3.0,7.0,67,0.00,,,0.00,Wunderground v.1.15,2013-03-25 11:57:00,
2013-03-25 08:03:00,60.7,50.5,29.88,NW,305,3.0,12.0,69,0.00,,,0.00,Wunderground v.1.15,2013-03-25 12:03:00,
2013-03-25 08:08:00,60.7,50.9,29.89,NW,304,3.0,12.0,70,0.00,,,0.00,Wunderground v.1.15,2013-03-25 12:08:00,
2013-03-25 08:14:00,60.7,51.2,29.89,NW,304,3.0,3.0,71,0.00,,,0.00,Wunderground v.1.15,2013-03-25 12:14:00,
2013-03-25 08:20:00,60.7,51.2,29.90,NW,317,2.0,4.0,71,0.00,,,0.00,Wunderground v.1.15,2013-03-25 12:20:00,
2013-03-25 08:25:00,60.8,51.7,29.90,NW,304,3.0,9.0,72,0.00,,,0.00,Wunderground v.1.15,2013-03-25 12:25:00,
2013-03-25 08:32:00,60.9,51.4,29.90,North,355,4.0,5.0,71,0.00,,,0.00,Wunderground v.1.15,2013-03-25 12:32:00,
2013-03-25 08:37:00,60.9,50.7,29.90,WNW,303,5.0,7.0,69,0.00,,,0.00,Wunderground v.1.15,2013-03-25 12:37:00,
2013-03-25 08:43:00,61.0,50.4,29.91,WNW,290,6.0,12.0,68,0.00,,,0.00,Wunderground v.1.15,2013-03-25 12:43:00,
2013-03-25 08:49:00,61.1,50.1,29.91,NW,323,6.0,12.0,67,0.00,,,0.00,Wunderground v.1.15,2013-03-25 12:49:00,
2013-03-25 08:55:00,61.3,49.8,29.92,WNW,292,6.0,10.0,66,0.00,,,0.00,Wunderground v.1.15,2013-03-25 12:55:00,
2013-03-25 09:02:00,61.4,48.7,29.92,WNW,292,6.0,12.0,63,0.00,,,0.00,Wunderground v.1.15,2013-03-25 13:02:00,
2013-03-25 09:07:00,61.5,47.5,29.92,NNW,348,5.0,13.0,60,0.00,,,0.00,Wunderground v.1.15,2013-03-25 13:07:00,
2013-03-25 09:13:00,61.6,46.2,29.93,WNW,294,5.0,11.0,57,0.00,,,0.00,Wunderground v.1.15,2013-03-25 13:13:00,
2013-03-25 09:18:00,61.5,47.9,29.93,NW,320,7.0,11.0,61,0.00,,,0.00,Wunderground v.1.15,2013-03-25 13:18:00,
2013-03-25 09:24:00,61.5,48.4,29.93,WNW,287,7.0,10.0,62,0.00,,,0.00,Wunderground v.1.15,2013-03-25 13:24:00,
2013-03-25 09:29:00,61.6,48.4,29.93,WNW,299,7.0,12.0,62,0.00,,,0.00,Wunderground v.1.15,2013-03-25 13:29:00,
2013-03-25 09:35:00,61.7,47.7,29.94,NNW,329,8.0,12.0,60,0.00,,,0.00,Wunderground v.1.15,2013-03-25 13:35:00,
2013-03-25 09:40:00,61.5,47.9,29.94,NNW,336,8.0,12.0,61,0.00,,,0.00,Wunderground v.1.15,2013-03-25 13:40:00,
2013-03-25 09:45:00,61.5,47.9,29.94,WNW,297,9.0,12.0,61,0.00,,,0.00,Wunderground v.1.15,2013-03-25 13:45:00,
2013-03-25 09:50:00,61.6,48.9,29.94,WNW,302,8.0,12.0,63,0.00,,,0.00,Wunderground v.1.15,2013-03-25 13:50:00,
2013-03-25 09:56:00,61.7,49.4,29.94,NW,311,7.0,13.0,64,0.00,,,0.00,Wunderground v.1.15,2013-03-25 13:56:00,
2013-03-25 10:02:00,61.5,50.0,29.95,NW,315,8.0,15.0,66,0.00,,,0.00,Wunderground v.1.15,2013-03-25 14:02:00,
2013-03-25 10:07:00,61.6,50.5,29.95,NW,309,8.0,15.0,67,0.00,,,0.00,Wunderground v.1.15,2013-03-25 14:07:00,
2013-03-25 10:12:00,61.4,49.9,29.96,NNE,19,8.0,10.0,66,0.00,,,0.00,Wunderground v.1.15,2013-03-25 14:12:00,
2013-03-25 10:18:00,61.1,47.1,29.97,North,5,8.0,11.0,60,0.00,,,0.00,Wunderground v.1.15,2013-03-25 14:18:00,
2013-03-25 10:23:00,61.2,46.8,29.97,WNW,296,6.0,12.0,59,0.00,,,0.00,Wunderground v.1.15,2013-03-25 14:23:00,
2013-03-25 10:29:00,61.1,47.1,29.97,NNE,19,6.0,12.0,60,0.00,,,0.00,Wunderground v.1.15,2013-03-25 14:29:00,
2013-03-25 10:34:00,61.4,47.8,29.97,WNW,300,5.0,5.0,61,0.00,,,0.00,Wunderground v.1.15,2013-03-25 14:34:00,
2013-03-25 10:40:00,61.6,48.9,29.98,NNW,331,5.0,7.0,63,0.00,,,0.00,Wunderground v.1.15,2013-03-25 14:40:00,
2013-03-25 10:47:00,61.5,49.2,29.98,NW,318,7.0,12.0,64,0.00,,,0.00,Wunderground v.1.15,2013-03-25 14:47:00,
2013-03-25 10:52:00,61.5,49.2,29.98,NNW,348,7.0,7.0,64,0.00,,,0.00,Wunderground v.1.15,2013-03-25 14:52:00,
2013-03-25 10:58:00,61.6,48.9,29.98,NNW,330,6.0,10.0,63,0.00,,,0.00,Wunderground v.1.15,2013-03-25 14:58:00,
2013-03-25 11:04:00,61.4,47.8,29.99,NNW,329,7.0,18.0,61,0.00,,,0.00,Wunderground v.1.15,2013-03-25 15:04:00,
2013-03-25 11:10:00,61.6,48.4,29.99,North,350,5.0,18.0,62,0.00,,,0.00,Wunderground v.1.15,2013-03-25 15:10:00,
2013-03-25 11:15:00,61.9,47.4,29.99,WNW,298,4.0,6.0,59,0.00,,,0.00,Wunderground v.1.15,2013-03-25 15:15:00,
2013-03-25 11:21:00,62.0,47.5,29.99,North,360,5.0,5.0,59,0.00,,,0.00,Wunderground v.1.15,2013-03-25 15:21:00,
2013-03-25 11:26:00,61.8,47.3,29.99,North,360,6.0,8.0,59,0.00,,,0.00,Wunderground v.1.15,2013-03-25 15:26:00,
2013-03-25 11:32:00,61.6,46.7,29.99,WNW,299,6.0,6.0,58,0.00,,,0.00,Wunderground v.1.15,2013-03-25 15:32:00,
2013-03-25 11:37:00,61.8,47.8,29.99,NE,46,5.0,9.0,60,0.00,,,0.00,Wunderground v.1.15,2013-03-25 15:37:00,
2013-03-25 11:42:00,61.9,47.9,29.99,North,355,4.0,5.0,60,0.00,,,0.00,Wunderground v.1.15,2013-03-25 15:42:00,
2013-03-25 11:48:00,62.5,48.9,29.99,NW,325,4.0,5.0,61,0.00,,,0.00,Wunderground v.1.15,2013-03-25 15:48:00,
2013-03-25 11:53:00,62.4,48.8,29.99,North,5,4.0,5.0,61,0.00,,,0.00,Wunderground v.1.15,2013-03-25 15:53:00,
2013-03-25 11:59:00,62.5,49.3,29.99,NNW,329,3.0,10.0,62,0.00,,,0.00,Wunderground v.1.15,2013-03-25 15:59:00,
2013-03-25 12:04:00,62.2,47.2,29.99,WNW,288,4.0,15.0,58,0.00,,,0.00,Wunderground v.1.15,2013-03-25 16:04:00,
2013-03-25 12:10:00,62.5,46.6,29.99,NW,322,5.0,15.0,56,0.00,,,0.00,Wunderground v.1.15,2013-03-25 16:10:00,
2013-03-25 12:15:00,62.7,46.8,29.99,NNW,329,4.0,10.0,56,0.00,,,0.00,Wunderground v.1.15,2013-03-25 16:15:00,
2013-03-25 12:21:00,63.4,44.9,29.99,North,360,3.0,4.0,51,0.00,,,0.00,Wunderground v.1.15,2013-03-25 16:21:00,
2013-03-25 12:27:00,63.5,45.6,29.99,WNW,284,4.0,10.0,52,0.00,,,0.00,Wunderground v.1.15,2013-03-25 16:27:00,
2013-03-25 12:32:00,63.5,45.0,29.99,NNW,334,4.0,4.0,51,0.00,,,0.00,Wunderground v.1.15,2013-03-25 16:32:00,
2013-03-25 12:38:00,63.4,42.8,29.99,NW,307,7.0,13.0,47,0.00,,,0.00,Wunderground v.1.15,2013-03-25 16:38:00,
2013-03-25 12:43:00,63.5,43.4,29.99,NNW,327,7.0,9.0,48,0.00,,,0.00,Wunderground v.1.15,2013-03-25 16:43:00,
2013-03-25 12:48:00,63.6,44.1,29.99,East,82,4.0,9.0,49,0.00,,,0.00,Wunderground v.1.15,2013-03-25 16:48:00,
2013-03-25 12:54:00,64.3,43.6,29.99,NW,306,3.0,10.0,47,0.00,,,0.00,Wunderground v.1.15,2013-03-25 16:54:00,
2013-03-25 12:59:00,64.0,43.4,29.99,NE,49,5.0,10.0,47,0.00,,,0.00,Wunderground v.1.15,2013-03-25 16:59:00,
2013-03-25 13:05:00,64.0,44.4,29.99,NNW,337,4.0,15.0,49,0.00,,,0.00,Wunderground v.1.15,2013-03-25 17:05:00,
2013-03-25 13:11:00,64.0,44.4,29.99,WNW,303,4.0,5.0,49,0.00,,,0.00,Wunderground v.1.15,2013-03-25 17:11:00,
2013-03-25 13:16:00,64.4,45.9,29.99,NNE,17,5.0,11.0,51,0.00,,,0.00,Wunderground v.1.15,2013-03-25 17:16:00,
2013-03-25 13:22:00,64.4,45.3,29.99,NNE,25,5.0,5.0,50,0.00,,,0.00,Wunderground v.1.15,2013-03-25 17:22:00,
2013-03-25 13:27:00,64.4,45.3,29.99,WNW,298,5.0,17.0,50,0.00,,,0.00,Wunderground v.1.15,2013-03-25 17:27:00,
2013-03-25 13:33:00,64.5,47.5,29.99,WNW,283,4.0,5.0,54,0.00,,,0.00,Wunderground v.1.15,2013-03-25 17:33:00,
2013-03-25 13:39:00,64.5,44.9,29.98,North,360,4.0,7.0,49,0.00,,,0.00,Wunderground v.1.15,2013-03-25 17:39:00,
2013-03-25 13:45:00,63.9,44.4,29.98,NNW,329,5.0,9.0,49,0.00,,,0.00,Wunderground v.1.15,2013-03-25 17:45:00,
2013-03-25 13:50:00,63.8,44.3,29.98,WNW,302,6.0,14.0,49,0.00,,,0.00,Wunderground v.1.15,2013-03-25 17:50:00,
2013-03-25 13:55:00,63.3,41.6,29.98,NNW,331,6.0,11.0,45,0.00,,,0.00,Wunderground v.1.15,2013-03-25 17:55:00,
2013-03-25 14:01:00,63.9,43.3,29.98,NW,308,5.0,5.0,47,0.00,,,0.00,Wunderground v.1.15,2013-03-25 18:01:00,
2013-03-25 14:08:00,63.8,42.0,29.97,WNW,300,6.0,14.0,45,0.00,,,0.00,Wunderground v.1.15,2013-03-25 18:08:00,
2013-03-25 14:13:00,63.8,43.2,29.97,NNW,329,5.0,7.0,47,0.00,,,0.00,Wunderground v.1.15,2013-03-25 18:13:00,
2013-03-25 14:19:00,63.7,41.4,29.97,West,281,5.0,9.0,44,0.00,,,0.00,Wunderground v.1.15,2013-03-25 18:19:00,
2013-03-25 14:24:00,63.6,40.7,29.97,NW,304,6.0,16.0,43,0.00,,,0.00,Wunderground v.1.15,2013-03-25 18:24:00,
2013-03-25 14:30:00,63.2,40.9,29.97,NW,309,6.0,14.0,44,0.00,,,0.00,Wunderground v.1.15,2013-03-25 18:30:00,
2013-03-25 14:35:00,63.4,40.5,29.97,WNW,303,6.0,18.0,43,0.00,,,0.00,Wunderground v.1.15,2013-03-25 18:35:00,
2013-03-25 14:41:00,63.6,43.5,29.97,WNW,297,4.0,6.0,48,0.00,,,0.00,Wunderground v.1.15,2013-03-25 18:41:00,
2013-03-25 14:46:00,63.8,42.6,29.97,NW,307,4.0,7.0,46,0.00,,,0.00,Wunderground v.1.15,2013-03-25 18:46:00,
2013-03-25 14:51:00,63.4,39.9,29.97,NW,307,6.0,10.0,42,0.00,,,0.00,Wunderground v.1.15,2013-03-25 18:51:00,
2013-03-25 14:57:00,63.0,40.7,29.98,WNW,303,6.0,12.0,44,0.00,,,0.00,Wunderground v.1.15,2013-03-25 18:57:00,
2013-03-25 15:02:00,63.2,40.9,29.98,WNW,290,5.0,24.0,44,0.00,,,0.00,Wunderground v.1.15,2013-03-25 19:02:00,
2013-03-25 15:08:00,63.3,40.4,29.97,NW,306,6.0,24.0,43,0.00,,,0.00,Wunderground v.1.15,2013-03-25 19:08:00,
2013-03-25 15:13:00,63.0,40.1,29.97,NE,42,6.0,7.0,43,0.00,,,0.00,Wunderground v.1.15,2013-03-25 19:13:00,
2013-03-25 15:18:00,63.2,41.5,29.97,NNW,336,5.0,9.0,45,0.00,,,0.00,Wunderground v.1.15,2013-03-25 19:18:00,
2013-03-25 15:24:00,62.8,39.4,29.97,NW,312,7.0,10.0,42,0.00,,,0.00,Wunderground v.1.15,2013-03-25 19:24:00,
2013-03-25 15:29:00,62.7,39.3,29.97,NNW,327,8.0,10.0,42,0.00,,,0.00,Wunderground v.1.15,2013-03-25 19:29:00,
2013-03-25 15:35:00,62.9,39.4,29.97,NW,306,7.0,17.0,42,0.00,,,0.00,Wunderground v.1.15,2013-03-25 19:35:00,
2013-03-25 15:40:00,62.7,39.9,29.97,NNE,13,6.0,6.0,43,0.00,,,0.00,Wunderground v.1.15,2013-03-25 19:40:00,
2013-03-25 15:45:00,62.9,38.2,29.97,NW,317,6.0,6.0,40,0.00,,,0.00,Wunderground v.1.15,2013-03-25 19:45:00,
2013-03-25 15:52:00,62.7,38.0,29.97,WNW,294,7.0,11.0,40,0.00,,,0.00,Wunderground v.1.15,2013-03-25 19:52:00,
2013-03-25 15:58:00,62.7,39.3,29.97,North,5,6.0,12.0,42,0.00,,,0.00,Wunderground v.1.15,2013-03-25 19:58:00,
2013-03-25 16:03:00,62.5,36.5,29.97,NNW,328,6.0,21.0,38,0.00,,,0.00,Wunderground v.1.15,2013-03-25 20:03:00,
2013-03-25 16:08:00,62.6,38.6,29.97,WNW,288,7.0,21.0,41,0.00,,,0.00,Wunderground v.1.15,2013-03-25 20:08:00,
2013-03-25 16:14:00,62.6,37.9,29.97,West,274,7.0,8.0,40,0.00,,,0.00,Wunderground v.1.15,2013-03-25 20:14:00,
2013-03-25 16:19:00,62.5,35.2,29.97,NNW,340,6.0,16.0,36,0.00,,,0.00,Wunderground v.1.15,2013-03-25 20:19:00,
2013-03-25 16:24:00,62.5,35.2,29.97,NNW,344,7.0,9.0,36,0.00,,,0.00,Wunderground v.1.15,2013-03-25 20:24:00,
2013-03-25 16:29:00,62.6,37.9,29.97,NW,315,6.0,9.0,40,0.00,,,0.00,Wunderground v.1.15,2013-03-25 20:29:00,
2013-03-25 16:34:00,63.0,38.9,29.96,NNW,344,3.0,5.0,41,0.00,,,0.00,Wunderground v.1.15,2013-03-25 20:34:00,
2013-03-25 16:40:00,63.1,39.0,29.97,NW,304,4.0,4.0,41,0.00,,,0.00,Wunderground v.1.15,2013-03-25 20:40:00,
2013-03-25 16:45:00,63.0,38.9,29.97,West,281,5.0,13.0,41,0.00,,,0.00,Wunderground v.1.15,2013-03-25 20:45:00,
2013-03-25 16:51:00,62.9,36.9,29.96,NW,315,5.0,10.0,38,0.00,,,0.00,Wunderground v.1.15,2013-03-25 20:51:00,
2013-03-25 16:56:00,62.6,35.9,29.96,North,355,6.0,10.0,37,0.00,,,0.00,Wunderground v.1.15,2013-03-25 20:56:00,
2013-03-25 17:02:00,62.6,38.6,29.96,North,11,5.0,7.0,41,0.00,,,0.00,Wunderground v.1.15,2013-03-25 21:02:00,
2013-03-25 17:08:00,62.7,37.4,29.96,NW,325,5.0,12.0,39,0.00,,,0.00,Wunderground v.1.15,2013-03-25 21:08:00,
2013-03-25 17:13:00,62.7,39.3,29.96,NW,313,4.0,10.0,42,0.00,,,0.00,Wunderground v.1.15,2013-03-25 21:13:00,
2013-03-25 17:19:00,62.3,35.0,29.96,WNW,284,4.0,10.0,36,0.00,,,0.00,Wunderground v.1.15,2013-03-25 21:19:00,
2013-03-25 17:25:00,61.8,36.6,29.96,WNW,296,6.0,12.0,39,0.00,,,0.00,Wunderground v.1.15,2013-03-25 21:25:00,
2013-03-25 17:31:00,61.8,37.2,29.96,NE,48,4.0,4.0,40,0.00,,,0.00,Wunderground v.1.15,2013-03-25 21:31:00,
2013-03-25 17:37:00,61.7,38.4,29.97,WNW,286,3.0,12.0,42,0.00,,,0.00,Wunderground v.1.15,2013-03-25 21:37:00,
2013-03-25 17:42:00,61.8,39.6,29.97,North,360,3.0,3.0,44,0.00,,,0.00,Wunderground v.1.15,2013-03-25 21:42:00,
2013-03-25 17:48:00,61.6,38.9,29.97,WNW,284,4.0,16.0,43,0.00,,,0.00,Wunderground v.1.15,2013-03-25 21:48:00,
2013-03-25 17:53:00,61.3,39.2,29.97,NNE,14,5.0,6.0,44,0.00,,,0.00,Wunderground v.1.15,2013-03-25 21:53:00,
2013-03-25 17:59:00,61.3,40.3,29.98,WNW,294,3.0,10.0,46,0.00,,,0.00,Wunderground v.1.15,2013-03-25 21:59:00,
2013-03-25 18:04:00,61.1,40.7,29.98,WNW,299,4.0,17.0,47,0.00,,,0.00,Wunderground v.1.15,2013-03-25 22:04:00,
2013-03-25 18:10:00,60.7,40.3,29.98,West,267,5.0,5.0,47,0.00,,,0.00,Wunderground v.1.15,2013-03-25 22:10:00,
2013-03-25 18:15:00,60.4,41.1,29.99,WNW,302,5.0,8.0,49,0.00,,,0.00,Wunderground v.1.15,2013-03-25 22:15:00,
2013-03-25 18:21:00,60.3,40.5,29.99,North,360,4.0,4.0,48,0.00,,,0.00,Wunderground v.1.15,2013-03-25 22:21:00,
2013-03-25 18:26:00,60.2,40.4,29.99,North,350,4.0,5.0,48,0.00,,,0.00,Wunderground v.1.15,2013-03-25 22:26:00,
2013-03-25 18:31:00,59.8,40.6,29.99,NNW,348,5.0,9.0,49,0.00,,,0.00,Wunderground v.1.15,2013-03-25 22:31:00,
2013-03-25 18:36:00,59.6,41.4,29.99,North,350,5.0,12.0,51,0.00,,,0.00,Wunderground v.1.15,2013-03-25 22:36:00,
2013-03-25 18:42:00,59.5,41.3,29.99,NW,311,4.0,9.0,51,0.00,,,0.00,Wunderground v.1.15,2013-03-25 22:42:00,
2013-03-25 18:47:00,59.3,41.7,29.99,NW,309,5.0,9.0,52,0.00,,,0.00,Wunderground v.1.15,2013-03-25 22:47:00,
2013-03-25 18:53:00,59.2,42.6,30.00,NW,304,4.0,11.0,54,0.00,,,0.00,Wunderground v.1.15,2013-03-25 22:53:00,
2013-03-25 18:58:00,59.1,42.5,30.00,NW,311,3.0,11.0,54,0.00,,,0.00,Wunderground v.1.15,2013-03-25 22:58:00,
2013-03-25 19:03:00,58.9,42.3,30.00,WNW,293,3.0,13.0,54,0.00,,,0.00,Wunderground v.1.15,2013-03-25 23:03:00,
2013-03-25 19:09:00,58.7,42.1,30.00,NW,322,3.0,13.0,54,0.00,,,0.00,Wunderground v.1.15,2013-03-25 23:09:00,
2013-03-25 19:14:00,58.6,42.5,30.00,WNW,300,2.0,3.0,55,0.00,,,0.00,Wunderground v.1.15,2013-03-25 23:14:00,
2013-03-25 19:20:00,58.5,42.8,30.00,WNW,291,1.0,1.0,56,0.00,,,0.00,Wunderground v.1.15,2013-03-25 23:20:00,
2013-03-25 19:25:00,58.3,42.7,30.01,WNW,284,2.0,3.0,56,0.00,,,0.00,Wunderground v.1.15,2013-03-25 23:25:00,
2013-03-25 19:31:00,58.1,42.9,30.01,NNW,328,2.0,3.0,57,0.00,,,0.00,Wunderground v.1.15,2013-03-25 23:31:00,
2013-03-25 19:36:00,58.0,42.4,30.00,NNW,332,2.0,14.0,56,0.00,,,0.00,Wunderground v.1.15,2013-03-25 23:36:00,
2013-03-25 19:42:00,57.8,42.2,30.00,NW,311,2.0,2.0,56,0.00,,,0.00,Wunderground v.1.15,2013-03-25 23:42:00,
2013-03-25 19:48:00,57.7,42.6,30.01,NW,325,0.0,2.0,57,0.00,,,0.00,Wunderground v.1.15,2013-03-25 23:48:00,
2013-03-25 19:53:00,57.6,42.5,30.01,WNW,302,0.0,0.0,57,0.00,,,0.00,Wunderground v.1.15,2013-03-25 23:53:00,
2013-03-25 19:58:00,57.5,42.4,30.01,NW,315,1.0,6.0,57,0.00,,,0.00,Wunderground v.1.15,2013-03-25 23:58:00,
2013-03-25 20:04:00,57.4,42.7,30.01,North,349,0.0,14.0,58,0.00,,,0.00,Wunderground v.1.15,2013-03-26 00:04:00,
2013-03-25 20:09:00,57.3,42.6,30.01,WNW,303,0.0,0.0,58,0.00,,,0.00,Wunderground v.1.15,2013-03-26 00:09:00,
2013-03-25 20:15:00,57.3,43.1,30.02,NW,318,0.0,1.0,59,0.00,,,0.00,Wunderground v.1.15,2013-03-26 00:15:00,
2013-03-25 20:21:00,57.2,43.0,30.02,NW,304,0.0,0.0,59,0.00,,,0.00,Wunderground v.1.15,2013-03-26 00:21:00,
2013-03-25 20:27:00,57.1,43.3,30.02,WNW,299,0.0,0.0,60,0.00,,,0.00,Wunderground v.1.15,2013-03-26 00:27:00,
2013-03-25 20:32:00,57.0,43.7,30.02,ENE,72,0.0,0.0,61,0.00,,,0.00,Wunderground v.1.15,2013-03-26 00:32:00,
2013-03-25 20:38:00,56.9,43.6,30.02,WNW,299,0.0,2.0,61,0.00,,,0.00,Wunderground v.1.15,2013-03-26 00:38:00,
2013-03-25 20:43:00,56.8,43.5,30.02,NW,309,0.0,0.0,61,0.00,,,0.00,Wunderground v.1.15,2013-03-26 00:43:00,
2013-03-25 20:49:00,56.8,43.5,30.03,NW,314,0.0,0.0,61,0.00,,,0.00,Wunderground v.1.15,2013-03-26 00:49:00,
2013-03-25 20:54:00,56.7,43.8,30.03,NW,314,0.0,0.0,62,0.00,,,0.00,Wunderground v.1.15,2013-03-26 00:54:00,
2013-03-25 20:59:00,56.6,43.7,30.04,WNW,299,0.0,0.0,62,0.00,,,0.00,Wunderground v.1.15,2013-03-26 00:59:00,
2013-03-25 21:05:00,56.5,43.6,30.04,WNW,299,0.0,7.0,62,0.00,,,0.00,Wunderground v.1.15,2013-03-26 01:05:00,
2013-03-25 21:10:00,56.5,43.6,30.04,WNW,299,0.0,0.0,62,0.00,,,0.00,Wunderground v.1.15,2013-03-26 01:10:00,
2013-03-25 21:16:00,56.4,44.0,30.05,WNW,299,0.0,0.0,63,0.00,,,0.00,Wunderground v.1.15,2013-03-26 01:16:00,
2013-03-25 21:22:00,56.2,43.8,30.05,WNW,300,0.0,0.0,63,0.00,,,0.00,Wunderground v.1.15,2013-03-26 01:22:00,
2013-03-25 21:28:00,56.1,44.1,30.05,WNW,300,0.0,0.0,64,0.00,,,0.00,Wunderground v.1.15,2013-03-26 01:28:00,
2013-03-25 21:34:00,55.9,43.9,30.05,WNW,300,0.0,0.0,64,0.00,,,0.00,Wunderground v.1.15,2013-03-26 01:34:00,
2013-03-25 21:39:00,55.7,44.1,30.06,WNW,300,0.0,0.0,65,0.00,,,0.00,Wunderground v.1.15,2013-03-26 01:39:00,
2013-03-25 21:45:00,55.6,44.0,30.06,WNW,300,0.0,0.0,65,0.00,,,0.00,Wunderground v.1.15,2013-03-26 01:45:00,
2013-03-25 21:50:00,55.4,44.2,30.06,WNW,300,0.0,0.0,66,0.00,,,0.00,Wunderground v.1.15,2013-03-26 01:50:00,
2013-03-25 21:55:00,55.2,44.0,30.06,WNW,300,0.0,0.0,66,0.00,,,0.00,Wunderground v.1.15,2013-03-26 01:55:00,
2013-03-25 22:01:00,55.1,44.3,30.06,WNW,300,0.0,4.0,67,0.00,,,0.00,Wunderground v.1.15,2013-03-26 02:01:00,
2013-03-25 22:06:00,54.8,44.4,30.06,WNW,299,0.0,4.0,68,0.00,,,0.00,Wunderground v.1.15,2013-03-26 02:06:00,
2013-03-25 22:12:00,54.7,44.3,30.06,WNW,299,0.0,0.0,68,0.00,,,0.00,Wunderground v.1.15,2013-03-26 02:12:00,
2013-03-25 22:17:00,54.5,44.2,30.07,WNW,300,0.0,0.0,68,0.00,,,0.00,Wunderground v.1.15,2013-03-26 02:17:00,
2013-03-25 22:23:00,54.3,44.3,30.07,WNW,299,0.0,0.0,69,0.00,,,0.00,Wunderground v.1.15,2013-03-26 02:23:00,
2013-03-25 22:28:00,54.2,44.6,30.07,WNW,300,0.0,0.0,70,0.00,,,0.00,Wunderground v.1.15,2013-03-26 02:28:00,
2013-03-25 22:33:00,54.1,44.9,30.07,WNW,300,0.0,0.0,71,0.00,,,0.00,Wunderground v.1.15,2013-03-26 02:33:00,
2013-03-25 22:39:00,53.9,44.7,30.07,WNW,300,0.0,0.0,71,0.00,,,0.00,Wunderground v.1.15,2013-03-26 02:39:00,
2013-03-25 22:44:00,53.8,45.0,30.07,WNW,299,0.0,0.0,72,0.00,,,0.00,Wunderground v.1.15,2013-03-26 02:44:00,
2013-03-25 22:50:00,53.7,44.9,30.07,WNW,300,0.0,0.0,72,0.00,,,0.00,Wunderground v.1.15,2013-03-26 02:50:00,
2013-03-25 22:55:00,53.8,45.3,30.07,WNW,299,0.0,0.0,73,0.00,,,0.00,Wunderground v.1.15,2013-03-26 02:55:00,
2013-03-25 23:01:00,53.9,45.4,30.07,WNW,300,0.0,0.0,73,0.00,,,0.00,Wunderground v.1.15,2013-03-26 03:01:00,
2013-03-25 23:06:00,53.9,45.4,30.08,WNW,300,0.0,0.0,73,0.00,,,0.00,Wunderground v.1.15,2013-03-26 03:06:00,
2013-03-25 23:11:00,53.9,45.4,30.08,WNW,299,0.0,0.0,73,0.00,,,0.00,Wunderground v.1.15,2013-03-26 03:11:00,
2013-03-25 23:16:00,53.8,45.3,30.08,WNW,299,0.0,0.0,73,0.00,,,0.00,Wunderground v.1.15,2013-03-26 03:16:00,
2013-03-25 23:21:00,53.8,45.7,30.08,WNW,300,0.0,0.0,74,0.00,,,0.00,Wunderground v.1.15,2013-03-26 03:21:00,
2013-03-25 23:27:00,53.7,45.6,30.08,WNW,300,0.0,0.0,74,0.00,,,0.00,Wunderground v.1.15,2013-03-26 03:27:00,
2013-03-25 23:33:00,53.7,46.0,30.08,WNW,300,0.0,0.0,75,0.00,,,0.00,Wunderground v.1.15,2013-03-26 03:33:00,
2013-03-25 23:38:00,53.7,46.0,30.08,WNW,300,0.0,0.0,75,0.00,,,0.00,Wunderground v.1.15,2013-03-26 03:38:00,
2013-03-25 23:43:00,53.8,46.1,30.09,WNW,299,0.0,0.0,75,0.00,,,0.00,Wunderground v.1.15,2013-03-26 03:43:00,
2013-03-25 23:49:00,53.9,46.2,30.09,WNW,300,0.0,0.0,75,0.00,,,0.00,Wunderground v.1.15,2013-03-26 03:49:00,
2013-03-25 23:55:00,54.2,46.4,30.08,WNW,300,0.0,0.0,75,0.00,,,0.00,Wunderground v.1.15,2013-03-26 03:55:00,